When you browse on this site, cookies collect data to enhance your experience and personalize the content and advertising you see.
Visit our Privacy Policy to learn more. By continuing to use the site, you agree to this use of cookies and data.
  • In United States
  • List of Countries
  • For 7 days
  • Water Temperature
  • Satellite Maps
  • Weather Map
  • Weather Widgets
  • user-avatar
    Login

    Hourly Weather Ordino

    Today, 11 December, Tuesday

    Time Temperature Precipitation Wind Pressure Humidity
    00:00 +1°C° 0 mm 1 mps 637 mmHg 72%
    01:00 +1°C° 0 mm 1 mps 637 mmHg 71%
    02:00 +1°C° 0 mm 1 mps 636 mmHg 71%
    03:00 +1°C° 0 mm 1 mps 636 mmHg 71%
    04:00 +1°C° 0 mm 1 mps 636 mmHg 70%
    05:00 +1°C° 0 mm 1 mps 635 mmHg 69%
    06:00 +1°C° 0 mm 1 mps 635 mmHg 68%
    07:00 +2°C° 0 mm 1 mps 635 mmHg 63%
    08:00 +3°C° 0 mm 1 mps 636 mmHg 59%
    09:00 +3°C° 0 mm 0 mps 636 mmHg 54%
    10:00 +6°C° 0 mm 1 mps 636 mmHg 51%
    11:00 +7°C° 0 mm 1 mps 637 mmHg 47%
    12:00 +9°C° 0 mm 1 mps 637 mmHg 44%
    13:00 +8°C° 0 mm 1 mps 636 mmHg 49%
    14:00 +8°C° 0 mm 1 mps 635 mmHg 53%
    15:00 +7°C° 0 mm 1 mps 635 mmHg 58%
    16:00 +6°C° 0 mm 1 mps 634 mmHg 62%
    17:00 +4°C° 0 mm 1 mps 634 mmHg 66%
    18:00 +3°C° 0 mm 1 mps 633 mmHg 71%
    19:00 +3°C° 0 mm 1 mps 633 mmHg 68%
    20:00 +3°C° 0 mm 1 mps 633 mmHg 65%
    21:00 +3°C° 0 mm 1 mps 633 mmHg 62%
    22:00 +3°C° 0 mm 1 mps 633 mmHg 61%
    23:00 +3°C° 0 mm 1 mps 633 mmHg 59%

    Tomorrow, 12 December, Wednesday

    Time Temperature Precipitation Wind Pressure Humidity
    00:00 +2°C° 0 mm 2 mps 634 mmHg 58%
    01:00 +1°C° 0 mm 2 mps 633 mmHg 59%
    02:00 +1°C° 0 mm 2 mps 633 mmHg 60%
    03:00 +1°C° 0 mm 2 mps 633 mmHg 61%
    04:00 +1°C° 0 mm 2 mps 633 mmHg 63%
    05:00 +1°C° 0 mm 2 mps 633 mmHg 64%
    06:00 -1°C° 0 mm 2 mps 633 mmHg 66%
    07:00 +1°C° 0 mm 2 mps 633 mmHg 68%
    08:00 +2°C° 0 mm 2 mps 634 mmHg 71%
    09:00 +3°C° 0 mm 2 mps 634 mmHg 74%
    10:00 +4°C° 0.1 mm 2 mps 634 mmHg 73%
    11:00 +4°C° 0.1 mm 2 mps 634 mmHg 72%
    12:00 +5°C° 0.1 mm 1 mps 634 mmHg 71%
    13:00 +5°C° 0.1 mm 1 mps 633 mmHg 72%
    14:00 +5°C° 0.1 mm 1 mps 633 mmHg 74%
    15:00 +3°C° 0.1 mm 2 mps 632 mmHg 76%
    16:00 +3°C° 0 mm 1 mps 632 mmHg 80%
    17:00 +2°C° 0 mm 1 mps 631 mmHg 85%
    18:00 +1°C° 0 mm 1 mps 631 mmHg 89%
    19:00 +1°C° 0 mm 1 mps 631 mmHg 88%
    20:00 0°C° 0 mm 1 mps 630 mmHg 87%
    21:00 0°C° 0 mm 1 mps 630 mmHg 86%
    22:00 0°C° 0 mm 1 mps 630 mmHg 85%
    23:00 +1°C° 0 mm 1 mps 630 mmHg 85%

    Day after tomorrow, 13 December, Thursday

    Time Temperature Precipitation Wind Pressure Humidity
    00:00 +1°C° 0 mm 1 mps 629 mmHg 85%
    01:00 +1°C° 0.1 mm 1 mps 629 mmHg 86%
    02:00 +1°C° 0.1 mm 1 mps 628 mmHg 88%
    03:00 +1°C° 0.1 mm 1 mps 628 mmHg 89%
    04:00 +1°C° 0 mm 1 mps 627 mmHg 89%
    05:00 +1°C° 0 mm 1 mps 626 mmHg 90%
    06:00 0°C° 0 mm 1 mps 626 mmHg 90%
    07:00 +1°C° 0.1 mm 1 mps 626 mmHg 86%
    08:00 +2°C° 0.1 mm 1 mps 626 mmHg 82%
    09:00 +2°C° 0.1 mm 1 mps 626 mmHg 79%
    10:00 +3°C° 0.4 mm 1 mps 626 mmHg 80%
    11:00 +3°C° 0.4 mm 1 mps 626 mmHg 81%
    12:00 +3°C° 0.4 mm 1 mps 625 mmHg 82%
    13:00 +3°C° 0.9 mm 1 mps 625 mmHg 85%
    14:00 +2°C° 0.9 mm 1 mps 625 mmHg 88%
    15:00 +2°C° 0.9 mm 1 mps 625 mmHg 92%
    16:00 +1°C° 0.8 mm 2 mps 625 mmHg 92%
    17:00 -1°C° 0.8 mm 2 mps 625 mmHg 92%
    18:00 -1°C° 0.8 mm 2 mps 625 mmHg 92%
    19:00 -1°C° 0.4 mm 2 mps 626 mmHg 91%
    20:00 -1°C° 0.4 mm 3 mps 626 mmHg 90%
    21:00 -1°C° 0.4 mm 3 mps 626 mmHg 89%
    22:00 -1°C° 0.3 mm 3 mps 626 mmHg 88%
    23:00 -2°C° 0.3 mm 3 mps 627 mmHg 87%

    14 December, Friday

    Time Temperature Precipitation Wind Pressure Humidity
    00:00 -2°C° 0.3 mm 3 mps 627 mmHg 87%
    01:00 -2°C° 0.2 mm 3 mps 627 mmHg 86%
    02:00 -2°C° 0.2 mm 3 mps 627 mmHg 86%
    03:00 -2°C° 0.2 mm 3 mps 628 mmHg 86%
    04:00 -2°C° 0.1 mm 3 mps 628 mmHg 86%
    05:00 -2°C° 0.1 mm 3 mps 629 mmHg 85%
    06:00 -2°C° 0.1 mm 3 mps 629 mmHg 85%
    07:00 -1°C° 0 mm 3 mps 630 mmHg 84%
    08:00 -1°C° 0 mm 3 mps 631 mmHg 83%
    09:00 0°C° 0 mm 3 mps 632 mmHg 81%
    10:00 +1°C° 0 mm 3 mps 632 mmHg 78%
    11:00 +2°C° 0 mm 3 mps 633 mmHg 75%
    12:00 +3°C° 0 mm 3 mps 634 mmHg 72%
    13:00 +2°C° 0 mm 3 mps 634 mmHg 72%
    14:00 +2°C° 0 mm 3 mps 634 mmHg 72%
    15:00 +2°C° 0 mm 3 mps 634 mmHg 73%
    16:00 +1°C° 0 mm 3 mps 634 mmHg 75%
    17:00 0°C° 0 mm 3 mps 634 mmHg 78%
    18:00 -2°C° 0 mm 3 mps 634 mmHg 80%
    19:00 -2°C° 0 mm 3 mps 635 mmHg 81%
    20:00 -2°C° 0 mm 3 mps 635 mmHg 82%
    21:00 -1°C° 0 mm 2 mps 635 mmHg 83%
    22:00 -2°C° 0 mm 2 mps 635 mmHg 83%
    23:00 -2°C° 0 mm 2 mps 635 mmHg 84%

    15 December, Saturday

    Time Temperature Precipitation Wind Pressure Humidity
    00:00 -2°C° 0 mm 2 mps 635 mmHg 84%
    01:00 -2°C° 0 mm 2 mps 635 mmHg 84%
    02:00 -3°C° 0 mm 2 mps 635 mmHg 84%
    03:00 -3°C° 0 mm 2 mps 635 mmHg 84%
    04:00 -3°C° 0 mm 2 mps 635 mmHg 82%
    05:00 -3°C° 0 mm 2 mps 635 mmHg 81%
    06:00 -4°C° 0 mm 2 mps 635 mmHg 79%
    07:00 -2°C° 0 mm 2 mps 635 mmHg 75%
    08:00 -1°C° 0 mm 2 mps 636 mmHg 71%
    09:00 +2°C° 0 mm 1 mps 637 mmHg 67%
    10:00 +4°C° 0 mm 1 mps 637 mmHg 64%
    11:00 +5°C° 0 mm 1 mps 637 mmHg 61%
    12:00 +7°C° 0 mm 1 mps 638 mmHg 59%
    13:00 +7°C° 0 mm 1 mps 638 mmHg 62%
    14:00 +6°C° 0 mm 1 mps 637 mmHg 66%
    15:00 +6°C° 0 mm 1 mps 637 mmHg 69%
    16:00 +5°C° 0 mm 1 mps 637 mmHg 70%
    17:00 +3°C° 0 mm 1 mps 637 mmHg 70%
    18:00 +2°C° 0 mm 1 mps 636 mmHg 70%
    19:00 +3°C° 0.1 mm 1 mps 637 mmHg 69%
    20:00 +3°C° 0.1 mm 1 mps 637 mmHg 68%
    21:00 +4°C° 0.1 mm 1 mps 637 mmHg 66%
    22:00 +4°C° 0.1 mm 1 mps 637 mmHg 69%
    23:00 +4°C° 0.1 mm 1 mps 637 mmHg 73%

    16 December, Sunday

    Time Temperature Precipitation Wind Pressure Humidity
    00:00 +4°C° 0.1 mm 1 mps 637 mmHg 76%
    01:00 +4°C° 0 mm 1 mps 636 mmHg 77%
    02:00 +4°C° 0 mm 1 mps 636 mmHg 79%
    03:00 +3°C° 0 mm 1 mps 636 mmHg 81%
    04:00 +4°C° 0 mm 1 mps 636 mmHg 82%
    05:00 +4°C° 0 mm 1 mps 636 mmHg 84%
    06:00 +4°C° 0 mm 1 mps 637 mmHg 85%
    07:00 +4°C° 0 mm 1 mps 637 mmHg 85%
    08:00 +5°C° 0 mm 1 mps 638 mmHg 86%
    09:00 +5°C° 0 mm 0 mps 638 mmHg 86%
    10:00 +7°C° 0 mm 1 mps 638 mmHg 83%
    11:00 +8°C° 0 mm 1 mps 639 mmHg 80%
    12:00 +9°C° 0 mm 1 mps 639 mmHg 77%
    13:00 +8°C° 0 mm 1 mps 639 mmHg 79%
    14:00 +8°C° 0 mm 1 mps 638 mmHg 82%
    15:00 +7°C° 0 mm 1 mps 638 mmHg 84%
    16:00 +6°C° 0.1 mm 1 mps 638 mmHg 87%
    17:00 +5°C° 0.1 mm 1 mps 638 mmHg 90%
    18:00 +4°C° 0.1 mm 1 mps 638 mmHg 93%
    19:00 +4°C° 0.1 mm 1 mps 638 mmHg 93%
    20:00 +4°C° 0.1 mm 1 mps 638 mmHg 93%
    21:00 +4°C° 0.1 mm 1 mps 639 mmHg 94%
    22:00 +4°C° 0.1 mm 1 mps 639 mmHg 94%
    23:00 +4°C° 0.1 mm 1 mps 639 mmHg 94%
    Show more